Погода в Советском

Россия / Саратовская область     51°26′38″N   46°44′17″E
темп.,
°C
ветер,
м/с
пор.,
м/с
влажн.,
%
обл.,
%
осадки,
мм/ч
давл.,
гПа
погр.,
м
9 марта, вт
вт901:00−4зюз3493100 0.0 1008105
04:00−7сз2294100 0.1 100921
07:00−9ссз2389100 0.0 100932
10:00−9ссз2387100 0.0 1010129
13:00−7ссз238596 0.0 1010265
16:00−6зсз358793 0.0 1010424
19:00−10зсз469263 0.0 101194
22:00−11зсз499234 0.0 1013177
10 марта, ср
ср1001:00−14зсз599313 0.0 1014161
04:00−16зсз489428 0.0 1015146
07:00−17зсз49930 0.0 1017185
10:00−15зсз610900 0.0 1019377
13:00−13зсз698622 0.0 1020605
16:00−13сз698559 0.0 1021776
19:00−16зсз5128999 0.0 1022339
22:00−19сз5109152 0.0 1024235
11 марта, чт
чт1101:00−21сз46940 0.0 1025101
04:00−23сз46930 0.0 1026116
07:00−25сз36930 0.0 102890
10:00−22сз36900 0.0 1029221
13:00−17зсз35890 0.0 1030285
16:00−15сз47882 0.0 1029429
19:00−18зсз46902 0.0 1029103
22:00−18зсз349231 0.0 103075
12 марта, пт
пт1201:00−20сз339425 0.0 103123
04:00−20сз229613 0.0 103120
07:00−21ссз22960 0.0 103220
10:00−17сз22920 0.0 103491
13:00−13сз11874 0.0 1034210
16:00−11юз118731 0.0 1034196
19:00−15ююз11912 0.0 103520
22:00−16ююз23881 0.0 103620
13 марта, сб
сб1301:00−17ю23860 0.0 103620
04:00−18ююз22900 0.0 103620
07:00−19ю23880 0.0 103720
10:00−15ю23870 0.0 1038124
13:00−12ю34850 0.0 1037255
16:00−11ю36884 0.0 1036293
19:00−14ююв449177 0.0 103464
22:00−15ююв479186 0.0 103487